Regional Weather Roundup
Issued by NWS

Home | Current Version | Previous Version | Graphics & Text | Print | Product List | Glossary On
Versions: 1 2 3 4 5 6 7 8 9 10 11 12 13 14 15 16 17 18 19 20 21 22 23 24 25 26 27 28 29 30 31 32 33 34 35 36 37 38 39 40 41 42 43 44 45 46 47 48 49 50
000
ASUS45 KABQ 191501
RWRNM
NEW MEXICO REGIONAL WEATHER ROUNDUP
NATIONAL WEATHER SERVICE ALBUQUERQUE NM
900 AM MDT THU APR 19 2018

NOTE: "FAIR" MEANS FEW OR NO CLOUDS BELOW 12,000 FEET AGL WITH NO
       SIGNIFICANT WEATHER OR OBSTRUCTIONS TO VISION.

      THIS PRODUCT IS RELEASED AS TWO VERSIONS.  ONE VERSION NEAR
      THE TOP OF THE HOUR CONTAINING PRELIMINARY DATA FROM ALBUQUERQUE
      AND OTHER STATIONS.  A FINAL VERSION WITH ADDITIONAL DATA IS
      ISSUED ABOUT 10 MINUTES AFTER THE HOUR.

NMZ501-503-504-510>518-191600-
NORTHWEST PLATEAU/NORTHCENTRAL MOUNTAINS

CITY           SKY/WX    TMP DP  RH WIND       PRES   REMARKS
FARMINGTON     FAIR      52  11  19 E13       30.10F
LOS ALAMOS     FAIR      45  10  24 S16G22    30.32F
SANTA FE       FAIR      50  12  21 SE23G35   30.29R
TAOS           FAIR      48  10  21 SW10      30.30F
ANGEL FIRE     FAIR      42  11  28 S14G20    30.33F

$$
NMZ402-403-502-505>509-191600-
WESTCENTRAL MOUNTAINS/SOUTHWEST MOUNTAINS

CITY           SKY/WX    TMP DP  RH WIND       PRES   REMARKS
GALLUP         FAIR      57   7  13 SE16      30.10F
GRANTS         FAIR      51   8  17 SE24G32   30.21S
SILVER CITY    FAIR      60  11  14 SE14      30.18S

$$
NMZ407-409-411-412-191600-
SOUTHERN DESERTS

CITY           SKY/WX    TMP DP  RH WIND       PRES   REMARKS
DEMING         FAIR      61  13  15 E15       30.14S
LAS CRUCES     FAIR      65  14  13 SE14G22   30.17S
HOLLOMAN AFB   FAIR      60  12  15 CALM      30.23R
ALAMOGORDO     FAIR      59  10  14 NW8       30.22R
T OR C         FAIR      62   9  12 CALM      30.19R

$$
NMZ519>523-191600-
CENTRAL VALLEYS/CENTRAL HIGHLANDS

CITY           SKY/WX    TMP DP  RH WIND       PRES   REMARKS
ALBUQUERQUE    FAIR      52  13  21 E26G32    30.22S
DOUBLE EAGLE   MOSUNNY   52  12  20 N7        30.25S
MORIARTY ARPT  FAIR      51  16  24 SE21G26   30.32F
CLINES CORNERS FAIR      45  14  28 SE20G35   30.34S
BELEN          FAIR      55  11  17 SE9       30.22S
SOCORRO        FAIR      58  12  16 SE7       30.21S

$$
NMZ524>526-539-540-191600-
SOUTHCENTRAL MOUNTAINS

CITY           SKY/WX    TMP DP  RH WIND       PRES   REMARKS
RUIDOSO        NOT AVBL

$$
NMZ527>531-191600-
NORTHEAST HIGHLANDS/NORTHEAST PLAINS

CITY           SKY/WX    TMP DP  RH WIND       PRES   REMARKS
LAS VEGAS      FAIR      44  11  26 S14       30.37S
RATON          FAIR      45   9  23 S13       30.33S
CLAYTON        FAIR      47  15  27 S21       30.36R

$$
NMZ532>537-191600-
EASTCENTRAL PLAINS

CITY           SKY/WX    TMP DP  RH WIND       PRES   REMARKS
SANTA ROSA     FAIR      51  12  21 SE12G22   30.34S
TUCUMCARI      FAIR      52  15  23 VRB3      30.34S
CANNON AFB     FAIR      51  19  29 SE13      30.37R
CLOVIS AIRPORT FAIR      49  21  33 SE12      30.38R

$$
NMZ028-029-538-191600-
SOUTHEAST PLAINS

CITY           SKY/WX    TMP DP  RH WIND       PRES   REMARKS
ROSWELL        FAIR      58  18  21 S8        30.32R
ARTESIA        CLOUDY    55  19  24 SE7       30.33R
CARLSBAD       CLOUDY    58  22  24 SE10      30.30R
HOBBS          CLOUDY    55  19  24 E17G24    30.33R


$$



USA.gov is the U.S. government's official web portal to all federal, state and local government web resources and services.